[[{"header":{"parameterUnit":"m.s-1","parameterCategory":1,"la1":30.2992,"la2":30.254,"lo1":-89.0895,"lo2":-89.0443,"dy":0.0025,"dx":0.0025,"nx":19,"ny":19,"refTime":"2026-05-07T03:00:00:Z","depth":0,"parameterNumber":2,"parameterNumberName":"U-component_of_WINDS"},"data":[0,0,0,-4.2465,-4.2464,-4.2403,-4.2403,-4.2358,-4.2358,0,0,0,0,0,0,0,0,0,0,0,-4.2504,-4.2504,-4.2465,-4.2464,-4.2403,-4.2403,-4.2358,-4.2358,0,0,0,0,0,0,0,0,0,0,0,-4.2503,-4.2504,-4.2504,-4.2464,-4.2403,-4.2402,-4.2359,-4.2393,0,0,0,0,0,0,0,0,0,0,-4.2446,-4.2501,-4.2504,-4.2504,-4.2464,-4.2403,-4.2402,-4.2394,-4.239,-4.2401,0,-4.2415,0,-4.2387,-4.2358,-4.2358,0,0,0,-4.2449,-4.2504,-4.247,-4.2505,-4.2464,-4.2403,-4.2426,-4.2391,-4.2388,-4.2397,-4.2414,-4.2412,-4.2386,-4.2358,-4.2357,-4.2469,-4.247,0,0,-4.2452,-4.2503,-4.2472,-4.2468,-4.248,-4.2428,-4.2425,-4.2389,-4.2411,-4.2414,-4.241,-4.2385,-4.2357,-4.2357,-4.2468,-4.2469,0,0,0,-4.2472,-4.2507,-4.2472,-4.2471,-4.2458,-4.2427,-4.2423,-4.2413,-4.2397,-4.2409,-4.2385,-4.2357,-4.2357,-4.2466,-4.2468,-4.2578,0,0,0,-4.2474,-4.2518,-4.2474,-4.2505,-4.2459,-4.2434,-4.2448,-4.24,-4.2394,-4.2385,-4.2357,-4.2357,-4.2465,-4.2467,-4.2572,-4.2621,0,0,0,-4.2501,-4.2521,-4.2519,-4.2508,-4.2483,-4.2434,-4.2415,-4.2397,-4.238,-4.2358,-4.2357,-4.2464,-4.2467,-4.2566,-4.2611,-4.2664,0,0,0,-4.2544,-4.2618,-4.2522,-4.2595,-4.2484,-4.2503,-4.2415,-4.2426,-4.2421,-4.2357,-4.2465,-4.2468,-4.2565,-4.2606,-4.2659,-4.2716,-4.2745,0,0,-4.2665,-4.2634,-4.2673,-4.2585,-4.2634,-4.2508,-4.2573,-4.2519,-4.2471,-4.2472,-4.2474,-4.2574,-4.2611,-4.2663,-4.2895,-4.2918,0,0,0,-4.2728,-4.2757,-4.2759,-4.2756,-4.2718,-4.2689,-4.262,-4.26,-4.2599,-4.2482,-4.2607,-4.2627,-4.2655,-4.268,-4.27,-4.2721,-4.2482,-4.2482,-4.2482,-4.2971,-4.2906,-4.2966,-4.2894,-4.2893,-4.2822,-4.2815,-4.2777,-4.2711,-4.2742,-4.2741,-4.289,-4.2921,-4.2935,-4.2958,-4.2768,-4.2768,-4.2769,-4.2769,-4.3141,-4.317,-4.3083,-4.3109,-4.304,-4.3062,-4.2998,-4.2951,-4.2961,-4.2885,-4.2906,-4.2826,-4.2963,-4.2979,-4.2776,-4.2775,-4.2774,-4.2773,-4.2773,-4.329,-4.3293,-4.3269,-4.3259,-4.326,-4.3185,-4.32,-4.3137,-4.3078,-4.3099,-4.3091,-4.3089,-4.3077,-4.3101,-4.3101,-4.3102,-4.3102,-4.3102,-4.3103,-4.3454,-4.3423,-4.3442,-4.341,-4.3401,-4.3381,-4.3314,-4.3303,-4.3275,-4.3228,-4.3227,-4.3158,-4.299,-4.2948,-4.311,-4.3109,-4.3108,-4.3107,-4.3107,-4.3645,-4.3593,-4.3623,-4.3614,-4.3571,-4.3576,-4.3497,-4.3481,-4.3463,-4.3473,-4.34,-4.3287,-4.325,-4.3233,-4.3197,-4.3415,-4.3415,-4.3415,-4.3415,-4.377,-4.3746,-4.3763,-4.3753,-4.3736,-4.3669,-4.3705,-4.3655,-4.3594,-4.3579,-4.354,-4.3488,-4.3475,-4.3445,-4.3424,-4.339,-4.3651,-4.3652,-4.3652,-4.3883,-4.3856,-4.3898,-4.3838,-4.3801,-4.3771,-4.3803,-4.3796,-4.3716,-4.366,-4.3566,-4.3556,-4.3472,-4.3449,-4.3387,-4.3356,-4.3291,0,0]},{"header":{"parameterUnit":"m.s-1","parameterCategory":1,"la1":30.2992,"la2":30.254,"lo1":-89.0895,"lo2":-89.0443,"dy":0.0025,"dx":0.0025,"nx":19,"ny":19,"refTime":"2026-05-07T03:00:00:Z","depth":0,"parameterNumber":3,"parameterNumberName":"V-component_of_WINDS"},"data":[0,0,0,2.2608,2.2608,2.2634,2.2634,2.2656,2.2656,0,0,0,0,0,0,0,0,0,0,0,2.2595,2.2595,2.2608,2.2608,2.2634,2.2634,2.2656,2.2656,0,0,0,0,0,0,0,0,0,0,0,2.2595,2.2595,2.2594,2.2608,2.2634,2.2634,2.2656,2.264,0,0,0,0,0,0,0,0,0,0,2.2617,2.2599,2.2595,2.2594,2.2609,2.2634,2.2634,2.264,2.2641,2.264,0,2.2638,0,2.2647,2.2657,2.2657,0,0,0,2.2612,2.2598,2.261,2.2594,2.2609,2.2634,2.2624,2.264,2.2642,2.2642,2.2638,2.2639,2.2648,2.2657,2.2657,2.2639,2.2639,0,0,2.2611,2.2596,2.2609,2.2611,2.2608,2.2623,2.2624,2.2642,2.2636,2.2638,2.264,2.2648,2.2657,2.2657,2.2639,2.2639,0,0,0,2.2604,2.2594,2.2607,2.261,2.2615,2.2623,2.2625,2.2636,2.2641,2.264,2.2648,2.2657,2.2657,2.264,2.2639,2.2612,0,0,0,2.2604,2.2591,2.2606,2.2597,2.2615,2.2626,2.2618,2.264,2.2642,2.2648,2.2657,2.2657,2.264,2.2639,2.2613,2.2601,0,0,0,2.2595,2.259,2.2592,2.2596,2.2606,2.2626,2.2633,2.2641,2.2647,2.2657,2.2657,2.264,2.264,2.2614,2.2603,2.2592,0,0,0,2.2581,2.2565,2.2591,2.2577,2.2606,2.2609,2.2633,2.2635,2.2641,2.2657,2.264,2.2639,2.2615,2.2604,2.2593,2.258,2.2574,0,0,2.2553,2.2561,2.2555,2.2578,2.2573,2.2607,2.2597,2.2616,2.263,2.2635,2.2635,2.2613,2.2603,2.2593,2.2541,2.2535,0,0,0,2.2541,2.2535,2.2538,2.2543,2.2558,2.2569,2.2591,2.2598,2.2604,2.263,2.2606,2.2601,2.2596,2.259,2.2585,2.2581,2.2636,2.2636,2.2636,2.2478,2.2499,2.2489,2.2513,2.2518,2.2542,2.2547,2.2561,2.2578,2.2573,2.2574,2.254,2.2533,2.253,2.2526,2.2569,2.2569,2.2569,2.2569,2.2439,2.2436,2.2462,2.2462,2.2484,2.2484,2.2506,2.2519,2.2522,2.2541,2.2537,2.2555,2.2523,2.2521,2.2567,2.2567,2.2567,2.2568,2.2568,2.2401,2.2403,2.2413,2.2424,2.2429,2.2454,2.2456,2.2475,2.2493,2.2489,2.2493,2.2494,2.2497,2.249,2.249,2.249,2.249,2.249,2.2489,2.2357,2.2369,2.2369,2.2385,2.2392,2.2403,2.2427,2.2434,2.2446,2.246,2.246,2.2479,2.2517,2.2526,2.2488,2.2488,2.2488,2.2488,2.2489,2.231,2.2324,2.2324,2.233,2.2351,2.2356,2.2381,2.2393,2.2401,2.2402,2.2422,2.2447,2.2457,2.2461,2.2468,2.2418,2.2418,2.2418,2.2418,2.2277,2.2285,2.229,2.2299,2.2311,2.2334,2.2333,2.2352,2.2374,2.238,2.239,2.2402,2.2405,2.2413,2.2418,2.2426,2.2365,2.2365,2.2365,2.2249,2.2259,2.2255,2.2278,2.2296,2.2311,2.231,2.2319,2.2347,2.2364,2.2386,2.2388,2.2407,2.2413,2.2429,2.2436,2.245,0,0]}]]